GW0547 Weather Reports


time (UTC)temp
C
wind
direction
speed
KPH
gust
KPH
rain 1hr
cm
rain 24hr
cm
rain mn
cm
humidity
%
barometer
mb
20260504202022 19 360 8.0 29.0 0.00 0.00 0.00 41 1006.1
20260504201540 20 240 12.9 37.0 0.00 0.00 0.00 42 1006.2
20260504201025 20 250 12.9 37.0 0.00 0.00 0.00 40 1006.3
20260504200522 20 251 11.3 29.0 0.00 0.00 0.00 40 1006.3
20260504200037 20 244 14.5 29.0 0.00 0.00 0.00 44 1006.4
20260504195523 20 296 14.5 27.4 0.00 0.00 0.00 42 1006.4
20260504195023 20 247 9.7 27.4 0.00 0.00 0.00 43 1006.5
20260504194545 19 298 12.9 30.6 0.00 0.00 0.00 45 1006.5
20260504194022 19 224 14.5 30.6 0.00 0.00 0.00 44 1006.5
20260504193523 19 239 12.9 25.7 0.00 0.00 0.00 44 1006.5
20260504193048 19 240 12.9 25.7 0.00 0.00 0.00 44 1006.7
20260504192522 19 252 8.0 25.7 0.00 0.00 0.00 48 1006.7
20260504192023 19 244 4.8 25.7 0.00 0.00 0.00 46 1006.9
20260504191544 19 286 6.4 29.0 0.00 0.00 0.00 45 1006.9
20260504191023 19 298 9.7 29.0 0.00 0.00 0.00 44 1006.9
20260504190522 19 293 11.3 29.0 0.00 0.00 0.00 44 1006.9
20260504190105 19 280 8.0 29.0 0.00 0.00 0.00 44 1006.9
20260504185527 19 280 11.3 24.1 0.00 0.00 0.00 46 1006.9
20260504185022 18 245 8.0 24.1 0.00 0.00 0.00 49 1007.0
20260504184538 18 265 9.7 29.0 0.00 0.00 0.00 50 1007.0
20260504184024 17 360 11.3 29.0 0.00 0.00 0.00 49 1007.1
20260504183520 18 360 19.3 35.4 0.00 0.00 0.00 48 1007.1
20260504183043 18 360 16.1 35.4 0.00 0.00 0.00 48 1007.0
20260504182530 18 360 17.7 35.4 0.00 0.00 0.00 50 1007.2
20260504182027 17 360 22.5 35.4 0.00 0.00 0.00 50 1007.3
20260504181550 17 360 11.3 35.4 0.00 0.00 0.00 50 1007.2
20260504181020 17 360 16.1 35.4 0.00 0.00 0.00 50 1007.2
20260504180527 18 360 11.3 32.2 0.00 0.00 0.00 48 1007.3
20260504180045 18 360 14.5 29.0 0.00 0.00 0.00 49 1007.2
20260504175527 18 360 11.3 33.8 0.00 0.00 0.00 50 1007.3
20260504175023 17 272 12.9 35.4 0.00 0.00 0.00 50 1007.4
20260504174546 17 360 9.7 35.4 0.00 0.00 0.00 54 1007.4
20260504174028 17 257 12.9 25.7 0.00 0.00 0.00 51 1007.4
20260504173525 17 218 8.0 25.7 0.00 0.00 0.00 52 1007.5
20260504173044 16 207 11.3 32.2 0.00 0.00 0.00 52 1007.5
20260504172526 16 222 14.5 32.2 0.00 0.00 0.00 51 1007.5
20260504172025 17 236 8.0 22.5 0.00 0.00 0.00 51 1007.6
20260504171546 16 295 11.3 27.4 0.00 0.00 0.00 49 1007.4
20260504171024 16 220 9.7 30.6 0.00 0.00 0.00 50 1007.5
20260504170525 16 258 12.9 30.6 0.00 0.00 0.00 52 1007.6
20260504151024 14 217 11.3 25.7 0.00 0.00 0.00 55 1008.6
20260504150531 14 256 14.5 35.4 0.00 0.00 0.00 54 1008.7
20260504141024 12 232 12.9 29.0 0.00 0.00 0.00 56 1008.6
20260504140525 12 205 9.7 29.0 0.00 0.00 0.00 59 1008.7
20260504130525 10 234 11.3 22.5 0.00 0.00 0.00 60 1009.1
20260504110524 7 206 8.0 20.9 0.00 0.00 0.00 67 1009.4
20260504100522 5 194 4.8 11.3 0.00 0.00 0.00 68 1009.4
20260504081542 6 214 4.8 11.3 0.00 0.00 0.00 66 1009.4
20260504081025 6 202 4.8 9.7 0.00 0.00 0.00 65 1009.4
20260504080525 6 219 3.2 8.0 0.00 0.00 0.00 65 1009.4
20260504050523 8 180 1.6 4.8 0.00 0.00 0.00 66 1009.6
20260504045523 8 180 3.2 6.4 0.00 0.00 0.00 65 1009.8
20260504045021 8 186 1.6 6.4 0.00 0.00 0.00 66 1009.8
20260504044541 8 186 3.2 6.4 0.00 0.00 0.00 65 1009.8
20260504044028 8 186 1.6 6.4 0.00 0.00 0.00 65 1009.7
20260504043525 8 186 3.2 6.4 0.00 0.00 0.00 66 1009.8
20260504043038 8 203 3.2 4.8 0.00 0.00 0.00 67 1009.8
20260504042525 8 203 1.6 4.8 0.00 0.00 0.00 67 1009.8
20260504042024 8 203 1.6 4.8 0.00 0.00 0.00 66 1009.8
20260504041544 8 203 1.6 4.8 0.00 0.00 0.00 66 1009.9
20260504041024 8 218 0.0 4.8 0.00 0.00 0.00 66 1009.9
20260504040524 7 0 0.0 6.4 0.00 0.00 0.00 66 1010.0
20260504040048 7 0 1.6 6.4 0.00 0.00 0.00 66 1009.9
20260504035524 7 198 3.2 6.4 0.00 0.00 0.00 67 1009.9
20260504035024 7 182 3.2 6.4 0.00 0.00 0.00 67 1009.8
20260504034543 7 182 3.2 6.4 0.00 0.00 0.00 68 1009.9
20260504034029 7 195 3.2 6.4 0.00 0.00 0.00 68 1010.0
20260504033524 8 221 1.6 4.8 0.00 0.00 0.00 68 1010.0
20260504033041 8 260 1.6 3.2 0.00 0.00 0.00 67 1010.1
20260504032525 8 0 1.6 4.8 0.00 0.00 0.00 67 1010.2
20260504032025 8 0 0.0 6.4 0.00 0.00 0.00 66 1010.3
20260504031536 8 294 3.2 6.4 0.00 0.00 0.00 66 1010.3
20260504031026 8 250 1.6 16.1 0.00 0.00 0.00 65 1010.4
20260504030524 8 272 3.2 16.1 0.00 0.00 0.00 65 1010.4
20260504030043 8 229 6.4 16.1 0.00 0.00 0.00 65 1010.5
20260504025525 8 279 4.8 14.5 0.00 0.00 0.00 65 1010.6
20260504025024 8 340 1.6 17.7 0.00 0.00 0.00 66 1010.7
20260504024545 8 299 4.8 17.7 0.00 0.00 0.00 65 1010.8
20260504024025 8 278 4.8 14.5 0.00 0.00 0.00 65 1010.8
20260504023525 8 294 3.2 6.4 0.00 0.00 0.00 65 1010.9
20260504023041 8 293 1.6 4.8 0.00 0.00 0.00 65 1010.8
20260504022528 8 240 1.6 4.8 0.00 0.00 0.00 64 1010.7
20260504022024 8 0 1.6 4.8 0.00 0.00 0.00 64 1010.7
20260504021540 8 292 0.0 14.5 0.00 0.00 0.00 64 1010.7
20260504021022 8 275 3.2 14.5 0.00 0.00 0.00 64 1010.7
20260504020524 8 320 3.2 16.1 0.00 0.00 0.00 64 1010.6
20260504020038 8 300 4.8 16.1 0.00 0.00 0.00 64 1010.6
20260504015525 8 300 1.6 17.7 0.00 0.00 0.00 64 1010.6
20260504015031 8 221 1.6 17.7 0.00 0.00 0.00 64 1010.5
20260504014554 8 209 8.0 17.7 0.00 0.00 0.00 64 1010.5
20260504014027 8 298 0.0 11.3 0.00 0.00 0.00 65 1010.6
20260504013524 8 178 4.8 11.3 0.00 0.00 0.00 65 1010.6
20260504013041 8 221 1.6 11.3 0.00 0.00 0.00 64 1010.6
20260504012527 8 232 0.0 6.4 0.00 0.00 0.00 64 1010.4
20260504012024 8 0 0.0 8.0 0.00 0.00 0.00 64 1010.4
20260504011541 8 230 3.2 8.0 0.00 0.00 0.00 63 1010.4
20260504011024 8 219 3.2 12.9 0.00 0.00 0.00 63 1010.4
20260504010527 8 17 3.2 12.9 0.00 0.00 0.00 62 1010.3
20260504010039 8 300 4.8 14.5 0.00 0.00 0.00 61 1010.3
20260504005524 8 289 6.4 16.1 0.00 0.00 0.00 60 1010.3
20260504005026 8 283 4.8 25.7 0.00 0.00 0.00 60 1010.3
20260504004540 8 321 6.4 25.7 0.00 0.00 0.00 59 1010.3
20260504004024 8 293 9.7 25.7 0.00 0.00 0.00 59 1010.4
20260504003524 8 256 4.8 24.1 0.00 0.00 0.00 60 1010.5
20260504003040 8 310 8.0 24.1 0.00 0.00 0.00 59 1010.5
20260504002524 9 296 11.3 24.1 0.00 0.00 0.00 57 1010.3
20260504002026 9 289 3.2 17.7 0.00 0.00 0.00 57 1010.3
20260504001548 9 334 6.4 19.3 0.00 0.00 0.00 55 1010.2
20260504001025 9 275 9.7 22.5 0.00 0.00 0.00 55 1010.1
20260504000524 9 285 6.4 22.5 0.00 0.00 0.00 55 1010.2
20260504000048 9 259 6.4 16.1 0.00 0.00 0.00 54 1010.1
20260503235522 9 275 4.8 14.5 0.00 0.00 0.00 55 1010.0
20260503235024 8 289 6.4 14.5 0.00 0.00 0.00 55 1010.0
20260503234538 8 338 3.2 9.7 0.00 0.00 0.00 56 1009.9
20260503234022 8 290 1.6 19.3 0.00 0.00 0.00 57 1009.8
20260503233522 9 298 3.2 19.3 0.00 0.00 0.00 56 1009.8
20260503233040 8 296 4.8 16.1 0.00 0.00 0.00 55 1009.8
20260503232526 9 290 1.6 8.0 0.00 0.00 0.00 55 1009.7
20260503232024 9 317 1.6 8.0 0.00 0.00 0.00 56 1009.6
20260503231543 9 271 1.6 9.7 0.00 0.00 0.00 55 1009.6
20260503231025 9 315 3.2 12.9 0.00 0.00 0.00 54 1009.6
20260503230527 9 288 4.8 20.9 0.00 0.00 0.00 54 1009.6
20260503230045 10 263 3.2 20.9 0.00 0.00 0.00 54 1009.6
20260503225526 10 296 1.6 25.7 0.00 0.00 0.00 54 1009.7
20260503225026 10 290 8.0 29.0 0.00 0.00 0.00 53 1009.5
20260503224543 10 281 14.5 29.0 0.00 0.00 0.00 52 1009.5
20260503224028 10 268 11.3 20.9 0.00 0.00 0.00 53 1009.6
20260503223528 10 229 8.0 19.3 0.00 0.00 0.00 54 1009.7
20260503223041 10 326 8.0 22.5 0.00 0.00 0.00 55 1009.8
20260503222525 10 329 9.7 22.5 0.00 0.00 0.00 54 1009.8
20260503222027 10 285 9.7 30.6 0.00 0.00 0.00 53 1009.8
20260503221548 10 347 9.7 30.6 0.00 0.00 0.00 55 1009.8
20260503221026 9 294 8.0 22.5 0.00 0.00 0.00 55 1009.8
20260503220526 9 285 11.3 25.7 0.00 0.00 0.00 53 1009.9
20260503220038 9 287 4.8 32.2 0.00 0.00 0.00 55 1009.8
20260503215525 9 312 14.5 32.2 0.00 0.00 0.00 54 1009.8
20260503215026 9 289 12.9 29.0 0.00 0.00 0.00 54 1009.8
20260503214537 9 293 11.3 38.6 0.00 0.00 0.00 54 1009.8
20260503214026 9 347 9.7 38.6 0.00 0.00 0.00 54 1009.8
20260503213525 10 250 11.3 25.7 0.00 0.00 0.00 54 1009.8
20260503213043 10 292 8.0 25.7 0.00 0.00 0.00 54 1009.7
20260503212524 10 278 8.0 25.7 0.00 0.00 0.00 55 1009.7
20260503212025 10 282 4.8 25.7 0.00 0.00 0.00 57 1009.5
20260503211547 10 295 12.9 25.7 0.00 0.00 0.00 52 1009.5
20260503211024 10 274 6.4 20.9 0.00 0.00 0.00 58 1009.5
20260503210526 9 298 9.7 25.7 0.00 0.00 0.00 54 1009.6
20260503210049 9 299 9.7 25.7 0.00 0.00 0.00 54 1009.6
20260503205528 9 290 11.3 25.7 0.00 0.00 0.00 52 1009.6
20260503205026 10 9 8.0 19.3 0.00 0.00 0.00 52 1009.6
20260503204558 10 352 6.4 22.5 0.00 0.00 0.00 53 1009.6
20260503204026 10 311 6.4 22.5 0.00 0.00 0.00 54 1009.6
20260503203524 10 331 12.9 27.4 0.00 0.00 0.00 52 1009.7
20260503203049 9 319 8.0 27.4 0.00 0.00 0.00 54 1009.8
20260503202525 9 0 11.3 27.4 0.00 0.00 0.00 51 1009.8